Zurück zum Katalog

STARLINK-35124

AktivKommunikationVLEO
NORAD 65511·PAYLOAD·🇺🇸 United States

Gestartet Sep 5, 2025 von Cape Canaveral Space Force Station

Loading…

Nächste Überflüge (nächste 24 Stunden)

TLE

AktuellSource: CelesTrak SupGP

Epoche: Sep 14, 2026, 22:32 UTC

1 65511C 25198V   26257.93937500  .00009477  00000+0  28000-3 0  2577
2 65511  53.1579 107.4349 0001532  77.6674 106.5947 15.34384434    18

Verfolge STARLINK-35124 in Echtzeit mit AllMySat

Download on the App Store